Location: *
(46.0770°N, 1.6444°E)
Time: 07:22:46
(UTC+00:00)

Cosmos 2074 Rocket - Pass Details

Date: 16 September 2019
Orbit: 966 x 987 km, 82.9° (Epoch: 20 October)

Event Time Altitude Azimuth Distance (km) Brightness Sun altitude
Rises 19:14:14 0° 348° (NNW) 3,690 7.4 -12.8°
Reaches altitude 10° 19:16:46 10° 346° (NNW) 2,735 6.8 -13.3°
Maximum altitude 19:22:57 64° 267° (W) 1,070 4.5 -14.3°
Drops below altitude 10° 19:29:03 10° 187° (S) 2,704 6.2 -15.3°
Sets 19:31:34 0° 184° (S) 3,645 6.8 -15.7°
